{"data":{"norad_id":48065,"intl_designator":"2021-025Z","name":"ONEWEB-0166","alt_names":[],"object_type":"PAYLOAD","status":"ACTIVE","operator":null,"country":"UK","launch_date":"2021-03-25","launch_site_code":"VOSTO","launch_vehicle":null,"mission":null,"orbit_class":"UNKNOWN","rcs_meters":null,"size_class":null,"mass_kg":null,"dimensions":null,"purposes":["comms"],"wikipedia_slug":null,"has_3d_model":false,"image_url":null,"decayed_at":null,"tle_current":{"epoch":"2026-05-24T23:44:04.696800Z","epoch_age_seconds":72065,"freshness":"FRESH","line1":"1 48065U 21025Z   26144.98894325 -.00000315  00000+0 -89829-3 0  9997","line2":"2 48065  87.8951 324.8217 0001898  97.2617 262.8728 13.13470055250605","mean_motion":13.13470055,"eccentricity":0.0001898,"inclination_deg":87.8951,"raan_deg":324.8217,"arg_perigee_deg":97.2617,"mean_anomaly_deg":262.8728,"bstar":-0.00089829,"rev_number":25060,"period_min":109.63325692263,"perigee_km":1208.325004242,"apogee_km":1211.2053719126,"semimajor_km":7587.9021880773,"source":"CELESTRAK","updated_at":"2026-05-25T13:38:22.392532Z"}}}